• En España
  • Lista de países
  • Para 7 días
  • Temperatura del agua
  • Mapa Satelital
  • El tiempo en el mapa
  • Informadores
  • user-avatar
    Iniciar sesión

    Tiempo cada hora Cherepahi

    Hoy, 16 Agosto, Jueves

    Tiempo Temperatura Precipitaciones Viento Presión Humedad
    00:00 +13°C° 0 mm 1 mps 748 mmHg 89%
    01:00 +13°C° 0 mm 1 mps 747 mmHg 91%
    02:00 +12°C° 0 mm 1 mps 747 mmHg 91%
    03:00 +12°C° 0 mm 1 mps 747 mmHg 92%
    04:00 +12°C° 0 mm 1 mps 747 mmHg 92%
    05:00 +13°C° 0 mm 1 mps 747 mmHg 89%
    06:00 +14°C° 0 mm 2 mps 747 mmHg 86%
    07:00 +15°C° 0 mm 2 mps 747 mmHg 83%
    08:00 +16°C° 0,3 mm 3 mps 746 mmHg 84%
    09:00 +16°C° 0,3 mm 3 mps 746 mmHg 84%
    10:00 +17°C° 0,3 mm 3 mps 745 mmHg 85%
    11:00 +17°C° 1,4 mm 4 mps 745 mmHg 86%
    12:00 +17°C° 1,4 mm 4 mps 744 mmHg 88%
    13:00 +17°C° 1,4 mm 4 mps 744 mmHg 89%
    14:00 +18°C° 0,6 mm 4 mps 744 mmHg 90%
    15:00 +18°C° 0,6 mm 4 mps 743 mmHg 92%
    16:00 +19°C° 0,6 mm 3 mps 743 mmHg 93%
    17:00 +19°C° 0,6 mm 3 mps 743 mmHg 93%
    18:00 +19°C° 0,6 mm 3 mps 743 mmHg 94%
    19:00 +19°C° 0,6 mm 3 mps 743 mmHg 95%
    20:00 +18°C° 0,4 mm 2 mps 743 mmHg 96%
    21:00 +17°C° 0,4 mm 2 mps 743 mmHg 97%
    22:00 +16°C° 0,4 mm 2 mps 743 mmHg 98%
    23:00 +16°C° 0,3 mm 2 mps 743 mmHg 98%

    Mañana, 17 Agosto, Viernes

    Tiempo Temperatura Precipitaciones Viento Presión Humedad
    00:00 +16°C° 0,3 mm 2 mps 743 mmHg 98%
    01:00 +16°C° 0,3 mm 3 mps 743 mmHg 97%
    02:00 +14°C° 0,1 mm 3 mps 743 mmHg 97%
    03:00 +13°C° 0,1 mm 3 mps 744 mmHg 97%
    04:00 +13°C° 0,1 mm 4 mps 744 mmHg 96%
    05:00 +12°C° 0 mm 4 mps 744 mmHg 95%
    06:00 +12°C° 0 mm 4 mps 745 mmHg 95%
    07:00 +12°C° 0 mm 4 mps 745 mmHg 94%
    08:00 +13°C° 0 mm 4 mps 746 mmHg 89%
    09:00 +14°C° 0 mm 4 mps 746 mmHg 83%
    10:00 +15°C° 0 mm 4 mps 746 mmHg 78%
    11:00 +17°C° 0 mm 4 mps 747 mmHg 70%
    12:00 +19°C° 0 mm 5 mps 747 mmHg 63%
    13:00 +20°C° 0 mm 5 mps 747 mmHg 56%
    14:00 +20°C° 0,1 mm 4 mps 747 mmHg 55%
    15:00 +20°C° 0,1 mm 4 mps 747 mmHg 54%
    16:00 +20°C° 0,1 mm 4 mps 747 mmHg 53%
    17:00 +19°C° 0 mm 4 mps 747 mmHg 60%
    18:00 +17°C° 0 mm 3 mps 748 mmHg 68%
    19:00 +16°C° 0 mm 3 mps 748 mmHg 75%
    20:00 +13°C° 0 mm 3 mps 748 mmHg 80%
    21:00 +13°C° 0 mm 2 mps 748 mmHg 85%
    22:00 +10°C° 0 mm 2 mps 749 mmHg 91%
    23:00 +10°C° 0 mm 2 mps 749 mmHg 93%

    Pasado mañana, 18 Agosto, Sábado

    Tiempo Temperatura Precipitaciones Viento Presión Humedad
    00:00 +9°C° 0 mm 2 mps 749 mmHg 94%
    01:00 +9°C° 0 mm 2 mps 749 mmHg 96%
    02:00 +9°C° 0 mm 2 mps 749 mmHg 97%
    03:00 +8°C° 0 mm 2 mps 750 mmHg 97%
    04:00 +8°C° 0 mm 2 mps 750 mmHg 97%
    05:00 +8°C° 0 mm 3 mps 750 mmHg 95%
    06:00 +9°C° 0 mm 3 mps 750 mmHg 93%
    07:00 +9°C° 0 mm 3 mps 750 mmHg 91%
    08:00 +11°C° 0 mm 4 mps 750 mmHg 83%
    09:00 +12°C° 0 mm 4 mps 751 mmHg 75%
    10:00 +14°C° 0 mm 4 mps 751 mmHg 67%
    11:00 +14°C° 0 mm 4 mps 751 mmHg 64%
    12:00 +15°C° 0 mm 4 mps 750 mmHg 62%
    13:00 +15°C° 0 mm 4 mps 750 mmHg 60%
    14:00 +15°C° 0 mm 4 mps 750 mmHg 58%
    15:00 +17°C° 0 mm 4 mps 750 mmHg 57%
    16:00 +17°C° 0 mm 4 mps 751 mmHg 55%
    17:00 +16°C° 0 mm 3 mps 751 mmHg 61%
    18:00 +14°C° 0 mm 3 mps 751 mmHg 66%
    19:00 +13°C° 0 mm 3 mps 751 mmHg 72%
    20:00 +12°C° 0 mm 2 mps 751 mmHg 77%
    21:00 +10°C° 0 mm 2 mps 752 mmHg 82%
    22:00 +9°C° 0 mm 2 mps 752 mmHg 87%
    23:00 +8°C° 0 mm 2 mps 752 mmHg 89%

    19 Agosto, Domingo

    Tiempo Temperatura Precipitaciones Viento Presión Humedad
    00:00 +8°C° 0 mm 2 mps 752 mmHg 91%
    01:00 +7°C° 0 mm 2 mps 752 mmHg 94%
    02:00 +7°C° 0 mm 2 mps 752 mmHg 94%
    03:00 +7°C° 0 mm 2 mps 752 mmHg 94%
    04:00 +7°C° 0 mm 1 mps 752 mmHg 94%
    05:00 +7°C° 0 mm 2 mps 753 mmHg 90%
    06:00 +8°C° 0 mm 2 mps 753 mmHg 86%
    07:00 +9°C° 0 mm 2 mps 753 mmHg 81%
    08:00 +12°C° 0 mm 2 mps 753 mmHg 74%
    09:00 +14°C° 0 mm 2 mps 753 mmHg 67%
    10:00 +15°C° 0 mm 2 mps 753 mmHg 60%
    11:00 +16°C° 0 mm 2 mps 752 mmHg 57%
    12:00 +17°C° 0 mm 2 mps 752 mmHg 54%
    13:00 +18°C° 0 mm 2 mps 752 mmHg 51%
    14:00 +17°C° 0 mm 2 mps 752 mmHg 52%
    15:00 +17°C° 0 mm 2 mps 752 mmHg 53%
    16:00 +17°C° 0 mm 2 mps 752 mmHg 54%
    17:00 +16°C° 0 mm 2 mps 751 mmHg 59%
    18:00 +15°C° 0 mm 1 mps 751 mmHg 65%
    19:00 +14°C° 0 mm 1 mps 751 mmHg 71%
    20:00 +12°C° 0 mm 1 mps 751 mmHg 74%
    21:00 +11°C° 0 mm 1 mps 752 mmHg 78%
    22:00 +8°C° 0 mm 0 mps 752 mmHg 81%
    23:00 +8°C° 0 mm 0 mps 752 mmHg 82%

    20 Agosto, Lunes

    Tiempo Temperatura Precipitaciones Viento Presión Humedad
    00:00 +8°C° 0 mm 0 mps 752 mmHg 83%
    01:00 +7°C° 0 mm 0 mps 752 mmHg 84%
    02:00 +7°C° 0 mm 0 mps 752 mmHg 85%
    03:00 +8°C° 0 mm 1 mps 752 mmHg 86%
    04:00 +7°C° 0 mm 1 mps 752 mmHg 87%
    05:00 +8°C° 0 mm 0 mps 752 mmHg 84%
    06:00 +9°C° 0 mm 0 mps 752 mmHg 80%
    07:00 +10°C° 0 mm 0 mps 752 mmHg 76%
    08:00 +12°C° 0 mm 0 mps 751 mmHg 69%
    09:00 +14°C° 0 mm 0 mps 751 mmHg 62%
    10:00 +17°C° 0 mm 0 mps 751 mmHg 55%
    11:00 +20°C° 0 mm 1 mps 751 mmHg 52%
    12:00 +21°C° 0 mm 1 mps 750 mmHg 48%
    13:00 +22°C° 0 mm 1 mps 750 mmHg 45%
    14:00 +21°C° 0 mm 1 mps 750 mmHg 45%
    15:00 +21°C° 0 mm 1 mps 750 mmHg 45%
    16:00 +21°C° 0 mm 1 mps 749 mmHg 45%
    17:00 +20°C° 0 mm 1 mps 749 mmHg 52%
    18:00 +18°C° 0 mm 1 mps 749 mmHg 59%
    19:00 +16°C° 0 mm 1 mps 749 mmHg 67%
    20:00 +15°C° 0 mm 1 mps 749 mmHg 69%
    21:00 +14°C° 0 mm 1 mps 749 mmHg 72%
    22:00 +13°C° 0 mm 2 mps 749 mmHg 74%
    23:00 +12°C° 0 mm 2 mps 749 mmHg 75%

    21 Agosto, Martes

    Tiempo Temperatura Precipitaciones Viento Presión Humedad
    00:00 +12°C° 0 mm 2 mps 749 mmHg 76%
    01:00 +12°C° 0 mm 2 mps 748 mmHg 77%
    02:00 +12°C° 0 mm 2 mps 748 mmHg 77%
    03:00 +12°C° 0 mm 2 mps 748 mmHg 78%
    04:00 +12°C° 0 mm 2 mps 748 mmHg 78%
    05:00 +11°C° 0 mm 3 mps 748 mmHg 79%
    06:00 +12°C° 0 mm 3 mps 748 mmHg 80%
    07:00 +13°C° 0 mm 3 mps 748 mmHg 81%
    08:00 +14°C° 0,2 mm 3 mps 747 mmHg 83%
    09:00 +14°C° 0,2 mm 3 mps 747 mmHg 85%
    10:00 +16°C° 0,2 mm 3 mps 747 mmHg 87%
    11:00 +17°C° 0,2 mm 3 mps 747 mmHg 85%
    12:00 +18°C° 0,2 mm 4 mps 747 mmHg 83%
    13:00 +19°C° 0,2 mm 4 mps 747 mmHg 81%
    14:00 +20°C° 0,5 mm 3 mps 746 mmHg 80%
    15:00 +20°C° 0,5 mm 3 mps 746 mmHg 80%
    16:00 +20°C° 0,5 mm 3 mps 746 mmHg 80%
    17:00 +19°C° 0,1 mm 2 mps 746 mmHg 84%
    18:00 +18°C° 0,1 mm 2 mps 746 mmHg 87%
    19:00 +19°C° 0,1 mm 1 mps 746 mmHg 91%
    20:00 +16°C° 0 mm 1 mps 746 mmHg 91%
    21:00 +15°C° 0 mm 1 mps 746 mmHg 92%
    22:00 +13°C° 0 mm 0 mps 746 mmHg 93%
    23:00 +13°C° 0 mm 0 mps 746 mmHg 93%
    Mostrar más